SCP
1 1 0 0 1 1 1 1 0 0 0 0 0 0 0 0 0 0 0 0 0 0 0 0 0 0 0 0 0 0 0 0 0 0 0 0 0 0 0 0 0 0 0
1 1 1 1 1 1 1 1 1 1 1 1 1 1 1 1 0 0 0 0 0 0 0 0 0 0 0 0 0 0 0 0 0 0 0 0 0 0 0 0 0 0 0
1 1 1 1 1 1 1 1 1 1 1 1 1 1 1 1 1 1 0 0 0 0 0 0 0 0 0 0 0 0 0 0 0 0 0 0 0 0 0 0 0 0 0
1 1 1 1 1 1 1 1 1 1 1 1 1 1 1 1 1 1 1 0 0 0 0 0 0 0 0 0 0 0 0 0 0 0 0 0 0 0 0 0 0 0 0
1 1 1 1 1 1 1 1 1 1 1 1 1 1 1 1 1 1 1 1 0 0 0 0 0 0 0 0 0 0 0 0 0 0 0 0 0 0 0 0 0 0 0
1 1 1 1 1 1 1 1 1 1 1 1 1 1 1 1 1 1 1 1 0 0 0 0 0 0 0 0 0 0 0 0 0 1 1 1 0 0 0 0 0 0 0
1 1 1 1 1 1 1 1 1 1 1 1 1 1 1 1 1 1 1 1 0 0 0 0 0 0 0 0 0 0 0 0 0 1 1 1 1 1 0 0 0 0 0
1 1 1 1 1 1 1 1 1 1 1 1 1 1 1 1 1 1 1 0 0 0 0 0 0 0 0 0 0 0 0 0 0 0 1 1 1 1 1 1 0 0 0
1 1 1 1 1 1 1 1 1 1 1 1 1 1 1 1 1 1 0 0 0 0 0 0 0 0 0 0 0 0 0 0 0 0 0 0 1 1 1 1 1 1 0
1 1 1 1 1 1 1 1 1 1 1 1 1 1 1 1 1 1 0 0 0 0 0 0 0 0 0 0 0 0 0 0 0 0 0 0 0 1 1 1 1 1 1
1 1 1 1 1 1 1 1 1 1 1 1 1 1 1 1 1 1 0 0 0 0 0 0 0 0 0 0 0 0 0 0 0 0 0 0 0 0 1 1 1 1 1
1 1 1 1 1 1 1 1 1 1 1 1 1 1 1 1 1 0 0 0 0 0 0 0 0 0 0 0 0 0 0 0 0 0 0 0 0 0 1 1 1 1 1
1 1 1 1 1 1 1 1 1 1 1 1 1 1 1 1 1 0 0 0 0 0 0 0 0 0 0 0 0 0 0 0 0 0 0 0 0 0 0 0 0 0 0
1 1 1 1 1 1 1 1 1 1 1 1 1 1 1 1 0 0 0 0 0 0 0 0 0 0 0 0 0 0 0 0 0 0 0 0 0 0 0 0 0 0 0
1 1 1 1 1 1 1 1 1 1 1 1 1 1 1 0 0 0 0 0 0 0 0 0 0 0 0 0 0 0 0 0 0 0 0 0 0 0 0 0 0 0 0
1 1 1 1 1 1 1 1 1 1 1 1 1 0 0 0 0 0 0 0 0 0 0 0 0 0 0 0 0 0 0 0 0 0 0 0 0 0 0 0 0 0 0
1 1 1 1 1 1 1 1 1 1 1 1 0 0 0 0 0 0 0 0 0 0 0 0 0 0 0 0 0 0 0 0 0 0 0 0 0 0 0 0 0 0 0
1 1 1 1 1 1 1 1 1 1 1 1 0 0 0 0 0 0 0 0 0 0 0 0 0 0 0 0 0 0 0 0 0 0 0 0 0 0 0 0 0 0 0
1 1 1 1 1 1 1 1 1 1 1 1 0 0 0 0 0 0 0 0 0 0 0 0 0 0 0 0 0 0 0 0 0 0 0 0 0 0 0 0 0 0 0
1 1 1 1 1 1 1 1 1 1 1 0 0 0 0 0 0 0 0 0 0 0 0 0 0 0 0 0 0 0 0 0 0 0 0 0 0 0 0 0 0 0 0
1 1 1 1 1 1 1 1 1 0 0 0 0 0 0 0 0 0 0 0 0 0 0 0 0 0 0 0 0 0 0 0 0 0 0 0 0 0 0 0 0 0 0
1 1 1 1 1 1 1 1 0 0 0 0 0 0 0 0 0 0 0 0 0 0 0 0 0 0 0 0 0 0 0 0 0 0 0 0 0 0 0 0 0 0 0
1 1 1 1 1 1 1 0 0 0 0 0 0 0 0 0 0 0 0 0 0 0 0 0 0 0 0 0 0 0 0 0 0 0 0 0 0 0 0 0 0 0 0
1 1 1 1 1 1 0 0 0 0 0 0 0 0 0 0 0 0 0 0 0 0 0 0 0 0 0 0 0 0 0 0 0 0 0 0 0 0 0 0 0 0 0
1 1 1 1 0 0 0 0 0 0 0 0 0 0 0 0 0 0 0 0 0 0 0 0 0 0 0 0 0 0 0 0 0 0 0 0 0 0 0 0 0 0 0
0 0 0 0 0 0 0 0 0 0 0 0 0 0 0 0 0 0 0 0 0 0 0 0 0 0 0 0 0 0 0 0 0 0 0 0 0 0 0 0 0 0 0
Wind_Speed
12 12 12 12 11 10 10 10 10 10 8 7 7 7 7 7 7 7 8 8 8 8 7 6 5 6 6 6 6 5 6 6 5 5 5 5 7 7 6 6 6 7 7
12 12 12 12 12 11 11 11 11 11 10 8 6 5 6 6 7 6 7 9 9 9 8 8 7 7 6 7 7 7 6 5 5 5 5 5 5 6 7 6 6 6 6
13 13 13 13 12 12 12 11 11 11 11 9 7 5 5 5 6 7 7 9 10 10 9 9 8 7 7 7 8 8 8 6 5 5 5 5 4 2 4 5 5 5 5
12 12 12 12 13 12 11 11 10 10 10 10 9 9 8 8 8 6 6 7 9 10 10 10 9 8 8 7 9 9 7 8 6 5 6 7 5 4 3 4 5 5 5
11 11 11 11 11 10 10 10 10 10 10 10 9 9 9 8 6 6 6 7 7 9 10 9 9 9 8 9 9 7 9 7 8 6 5 6 6 8 6 5 4 4 4
9 9 9 9 9 9 9 8 9 9 10 10 9 10 10 8 7 7 6 6 5 6 9 9 8 8 8 8 9 9 10 8 8 7 6 6 5 6 6 7 6 5 4
8 9 10 10 9 9 9 8 9 9 9 9 9 9 9 9 9 7 6 6 5 5 7 8 7 7 8 8 8 8 8 9 9 8 6 6 7 6 6 6 6 5 5
7 8 9 9 9 9 9 9 9 8 8 8 8 8 8 7 6 6 5 5 5 5 6 7 7 8 8 9 8 7 8 7 8 9 8 6 7 6 6 6 6 6 6
7 8 8 9 9 8 8 8 8 7 7 7 7 6 6 5 5 4 5 4 4 4 5 6 7 7 7 8 7 7 7 7 8 8 8 7 5 6 6 5 5 6 6
7 8 8 7 7 7 7 7 6 6 6 6 5 4 4 4 3 3 3 3 4 3 4 5 6 6 6 6 6 6 6 6 6 6 6 7 6 5 5 5 4 5 6
7 7 7 7 7 7 7 6 6 5 5 5 4 4 3 3 3 3 3 3 2 3 4 4 4 5 5 5 5 6 6 6 6 6 7 7 6 4 4 4 4 5 5
6 8 8 8 8 7 6 6 5 5 4 4 4 4 3 2 2 2 1 1 1 2 2 2 2 3 3 3 4 5 5 5 5 5 5 5 4 5 4 4 4 4 4
8 8 8 8 7 7 6 6 5 4 4 4 4 4 3 2 2 1 1 0 0 0 0 0 1 1 1 1 2 2 2 3 3 3 3 3 3 4 3 3 3 3 3
8 8 8 8 7 7 6 6 5 4 4 4 4 4 3 2 2 2 2 1 1 2 2 2 2 2 2 1 0 0 0 0 0 1 0 1 2 2 2 2 2 2 2
9 9 8 8 7 7 6 5 5 4 4 4 4 4 4 3 3 3 3 3 3 3 3 4 3 3 2 2 2 1 1 2 2 2 2 3 4 4 3 2 1 1 1
9 9 9 8 8 7 6 6 5 5 4 4 4 4 4 4 4 4 4 4 4 5 5 5 4 5 5 7 7 4 4 4 4 3 3 4 4 5 6 7 7 5 3
9 9 9 8 7 6 6 6 6 5 5 5 4 4 4 4 5 5 5 5 5 6 6 5 6 6 8 9 8 7 5 6 5 5 4 4 5 4 4 6 6 7 7
9 9 8 8 8 7 7 7 7 6 6 6 5 5 5 6 6 6 6 6 5 6 6 6 7 7 8 9 8 7 7 8 8 7 6 5 5 5 4 5 6 7 7
8 8 8 8 8 8 7 7 7 7 7 6 5 5 6 7 7 6 6 6 6 6 6 6 7 7 8 9 7 5 7 8 9 9 9 8 7 8 5 6 6 7 6
8 8 8 8 8 7 8 8 8 7 7 6 6 6 6 7 7 7 6 6 6 7 7 8 8 9 9 10 9 5 6 7 7 8 9 13 11 11 9 6 6 7 6
9 9 9 8 7 7 8 8 7 7 7 7 6 6 7 7 7 7 6 6 7 8 8 9 9 9 9 9 10 8 5 6 7 7 7 8 11 11 10 8 7 5 3
10 10 9 8 7 7 8 8 7 7 7 7 7 7 7 6 6 7 7 7 8 8 8 8 8 7 8 9 10 11 10 7 8 7 7 7 9 11 10 8 6 4 2
9 9 9 9 7 7 7 8 7 7 8 8 8 8 8 7 7 7 7 7 6 6 6 6 6 6 6 8 11 11 11 10 8 8 9 7 5 6 8 8 5 3 3
9 9 9 9 8 7 7 8 8 8 9 9 8 8 8 8 7 5 5 5 5 5 5 5 6 6 6 5 5 6 7 9 8 7 7 6 5 5 5 4 4 6 6
8 8 8 9 8 8 8 7 8 9 9 9 8 8 8 8 8 9 9 7 8 6 4 5 5 5 6 7 8 5 5 5 5 3 3 4 5 5 6 6 6 6 5
8 8 9 9 8 8 8 7 7 8 9 8 7 7 7 7 7 9 10 17 14 15 15 13 9 10 10 9 10 10 9 6 4 2 5 5 5 6 6 5 5 5 5
Wind_Direction
191 191 192 194 192 192 193 197 202 196 198 201 205 205 211 215 216 218 216 221 227 222 227 244 222 231 231 233 230 233 229 237 241 249 246 234 233 238 236 234 240 230 227
189 189 190 191 194 194 197 198 201 200 202 206 212 216 221 219 221 227 220 223 226 225 222 229 232 227 231 231 233 231 242 237 225 245 254 248 224 215 225 221 224 233 228
196 190 191 194 196 199 201 201 200 201 206 207 210 215 219 226 222 221 220 222 222 222 229 227 230 229 231 229 229 228 234 241 234 236 253 265 262 244 201 213 226 228 233
199 194 194 196 200 201 200 203 200 201 204 206 214 214 224 230 230 227 225 226 225 226 224 229 228 229 234 231 231 226 232 237 241 227 234 256 288 282 258 215 207 214 227
197 194 194 196 200 199 197 196 199 201 204 210 215 219 229 235 239 236 234 232 230 228 226 225 225 226 234 235 239 237 235 233 241 242 234 237 241 248 262 263 249 224 221
187 186 185 181 186 191 191 189 194 198 203 209 215 222 233 238 242 239 236 232 230 228 224 224 226 229 232 233 235 238 234 237 244 246 244 241 242 241 245 254 256 258 249
177 176 174 173 176 182 183 183 189 195 200 207 214 223 233 239 242 244 241 241 235 226 224 227 227 233 234 234 233 232 238 236 239 240 244 246 249 256 256 259 262 266 265
167 168 169 168 170 176 176 178 183 191 196 204 212 222 230 237 242 243 248 241 241 240 231 228 230 233 234 233 228 232 232 234 239 242 245 251 252 251 251 256 262 263 261
158 160 160 163 165 168 167 172 177 182 188 198 203 212 223 237 253 254 251 253 248 241 229 229 235 237 235 235 233 234 235 235 238 241 239 242 251 253 252 251 253 258 266
151 148 149 152 153 156 157 164 169 171 179 191 198 195 208 219 233 250 258 261 255 247 234 229 235 239 237 231 231 239 235 235 240 245 248 243 244 242 245 246 246 247 255
143 141 142 141 143 150 153 157 158 162 173 182 185 189 195 198 206 229 246 255 256 248 242 232 234 235 236 233 231 237 235 236 240 240 237 237 244 246 243 239 239 241 239
136 137 136 135 140 144 145 144 145 155 163 165 166 166 172 181 187 204 230 238 254 269 257 239 229 232 237 239 238 237 235 238 245 245 245 247 243 238 244 239 238 243 248
139 137 135 136 137 136 135 133 137 142 149 148 151 150 156 157 158 153 148 192 145 27 351 17 283 274 261 243 241 233 232 236 246 249 247 252 254 247 238 237 242 247 247
144 140 137 134 131 130 130 129 127 129 135 137 143 143 140 137 130 120 111 95 85 77 62 63 41 32 38 55 63 141 202 212 219 240 271 305 278 264 247 236 242 247 253
150 145 142 135 134 130 130 125 122 121 125 133 133 129 130 126 114 108 102 93 84 80 70 68 63 61 63 50 42 63 91 89 85 72 63 51 48 39 18 355 348 304 276
155 149 144 140 138 135 133 129 126 125 127 125 122 120 123 119 111 107 108 104 94 81 74 71 66 56 49 44 38 37 68 71 71 66 67 73 69 73 72 59 51 33 6
155 150 146 143 139 136 135 133 126 126 123 116 116 121 122 112 106 108 109 103 96 90 80 73 70 64 53 46 46 49 65 66 61 58 56 56 58 61 83 87 84 63 47
151 150 145 140 137 135 133 129 127 125 120 114 111 113 116 111 108 105 99 97 95 88 83 77 74 73 58 47 53 63 74 70 64 59 55 58 56 47 55 76 73 63 49
144 141 139 134 131 132 131 131 127 124 118 111 110 109 114 115 115 110 103 95 91 87 84 80 76 75 63 41 39 55 84 78 69 60 50 49 60 36 38 77 77 74 74
133 131 131 128 127 127 130 131 127 122 115 111 109 109 113 115 114 110 104 97 94 91 88 80 72 71 66 45 38 41 87 86 82 73 64 53 50 41 36 66 73 74 65
129 129 127 123 121 124 127 123 119 114 111 111 110 107 105 107 109 108 106 106 102 95 90 85 78 71 66 60 44 37 72 84 84 77 69 57 49 50 44 50 61 55 42
128 128 124 117 117 122 125 119 115 112 112 112 109 106 105 106 109 110 108 108 111 107 100 94 88 82 71 61 57 52 52 59 82 77 76 72 63 64 57 57 48 17 342
128 126 123 117 114 114 117 117 115 116 114 111 107 103 98 93 102 110 114 116 116 111 108 105 98 92 90 88 79 72 65 61 77 79 79 80 88 99 81 66 34 18 43
129 129 124 119 114 113 112 116 120 118 117 113 110 107 103 97 90 89 93 97 99 105 108 105 103 102 95 86 93 104 104 110 105 104 114 115 82 80 85 84 59 49 40
123 123 122 121 118 114 114 120 126 125 120 117 115 111 104 99 85 70 49 56 54 43 66 90 96 95 91 60 38 48 68 64 68 87 99 77 70 61 59 59 53 46 46
125 124 122 121 121 120 117 120 128 130 128 126 124 119 116 113 111 106 86 54 58 57 55 52 69 77 79 83 72 67 62 51 1 30 77 67 58 51 50 51 54 52 44